Terminal Aerodrome Forecast
Issued by NWS

Home | Current Version | Previous Version | Text Only | Print | Product List | Glossary On
Versions: 1 2 3 4 5 6 7 8 9 10 11 12 13 14 15 16 17 18
000
FTUS43 KGRR 172340
TAFMKG
TAF
KMKG 172340Z 1800/1824 22011KT 3/4SM -SN SCT008 OVC015
     FM180100 25011KT 2SM -SN OVC015
     FM180300 27009KT P6SM OVC015
     FM180700 27007KT P6SM BKN040
     FM181200 18008KT P6SM BKN150
     FM181800 18015G25KT P6SM BKN250=

USA.gov is the U.S. government's official web portal to all federal, state and local government web resources and services.